1498464001.0,14284,20.94,73862.8,10.51,8.15,8.09,0,*4E
1498464002.2,14285,20.94,73858.8,10.51,8.51,8.45,0,*47
1498464003.41,14286,20.94,73864.0,10.47,8.89,8.79,0,*49
1498464004.62,14287,20.94,73858.8,10.47,8.83,8.71,0,*4A
1498464005.83,14288,20.94,73862.5,10.45,8.79,8.79,0,*4A
1498464007.04,14289,20.94,73860.5,10.41,8.79,8.69,0,*4E
1498464008.27,14290,20.94,73862.3,10.41,9.11,9.03,0,*44
1498464009.48,14291,20.94,73862.5,10.41,8.87,8.79,0,*47
1498464010.72,14292,20.94,73862.3,10.39,8.55,8.33,0,*4A
1498464011.95,14293,20.94,73860.8,10.37,8.61,8.51,0,*46
1498464013.18,14294,20.94,73860.5,10.37,8.87,8.75,0,*4F
1498464014.41,14295,20.94,73862.5,10.37,8.45,8.33,0,*42
1498464015.66,14296,20.94,73860.5,10.35,8.51,8.41,0,*43
1498464016.89,14297,20.94,73860.8,10.33,8.59,8.47,0,*4A
1498464018.09,14298,20.94,73866.0,10.33,8.89,8.79,0,*45
1498464019.3,14299,20.94,73862.3,10.33,8.97,8.83,0,*4E
1498464020.53,14300,20.94,73864.8,10.29,9.19,9.01,0,*48
1498464021.75,14301,20.94,73866.3,10.29,9.07,9.01,0,*46
1498464022.96,14302,20.94,73864.0,10.29,8.87,8.71,0,*4A
1498464024.19,14303,20.94,73862.3,10.29,8.41,8.41,0,*42
1498464025.42,14304,20.94,73860.3,10.27,8.71,8.69,0,*42
1498464026.63,14305,20.94,73860.5,10.27,8.69,8.61,0,*42
1498464027.83,14306,20.94,73860.0,10.25,8.13,8.01,0,*48
1498464029.03,14307,20.94,73864.8,10.25,8.29,8.19,0,*49
1498464030.26,14308,20.94,73862.5,10.21,8.37,8.33,0,*45
1498464031.47,14309,20.94,73864.5,10.21,8.69,8.55,0,*4F
1498464032.68,14310,20.94,73862.5,10.21,8.37,8.23,0,*4D
1498464033.89,14311,20.94,73864.3,10.17,8.23,8.13,0,*4F
1498464035.12,14312,20.94,73868.0,10.15,8.61,8.59,0,*46
1498464036.34,14313,20.94,73862.8,10.15,9.07,8.87,0,*45
1498464037.54,14314,20.94,73864.8,10.13,8.83,8.75,0,*44
1498464038.78,14315,20.94,73866.3,10.11,8.89,8.79,0,*41
1498464039.99,14316,20.94,73862.0,10.13,9.03,8.89,0,*4C
1498464041.22,14317,20.94,73864.3,10.13,8.41,8.29,0,*40
1498464042.46,14318,20.94,73864.8,10.11,7.91,7.79,0,*45
1498464043.69,14319,20.94,73864.5,10.11,8.65,8.47,0,*42
1498464044.92,14320,20.94,73866.5,10.11,8.89,8.79,0,*47
1498464046.14,14321,20.94,73866.0,10.11,8.27,8.23,0,*4D
1498464047.35,14322,20.94,73868.5,10.07,8.65,8.61,0,*49
1498464048.55,14323,20.94,73866.0,10.07,8.61,8.65,0,*48
1498464049.75,14324,20.94,73864.8,10.09,8.05,7.91,0,*47
1498464050.96,14325,20.94,73868.3,10.05,7.37,7.27,0,*49
1498464052.14,14326,20.94,73866.8,10.03,7.05,6.93,0,*43
1498464053.36,14327,20.94,73870.3,10.01,6.79,6.65,0,*43
1498464054.6,14328,20.94,73866.5,9.95,7.23,7.19,0,*7D
1498464055.85,14329,20.94,73870.3,9.93,7.69,7.61,0,*7B
1498464057.05,14330,20.94,73866.3,9.93,7.59,7.51,0,*73
1498464058.26,14331,20.94,73874.3,9.91,7.79,7.69,0,*79
1498464059.47,14332,20.94,73872.5,9.89,7.55,7.45,0,*73
1498464060.71,14333,20.94,73868.5,9.89,6.43,6.33,0,*74
1498464061.95,14334,20.94,73868.0,9.85,5.77,5.55,0,*78
1498464063.15,14335,20.94,73868.5,9.81,5.49,5.37,0,*74
1498464064.37,14336,20.94,73866.3,9.79,5.85,5.77,0,*74
1498464065.6,14337,20.94,73866.8,9.73,4.67,4.53,0,*75
1498464066.82,14338,20.94,73864.3,9.69,5.45,5.27,0,*72
1498464068.03,14339,20.94,73862.8,9.65,4.53,4.41,0,*78
1498464069.23,14340,20.94,73862.8,9.61,3.81,3.59,0,*74
1498464070.48,14341,20.94,73866.3,9.57,3.79,3.71,0,*7D
1498464071.71,14342,20.94,73860.0,9.53,4.63,4.45,0,*76
1498464072.92,14343,20.94,73862.5,9.53,5.37,5.23,0,*76
1498464074.12,14344,20.94,73860.8,9.47,5.67,5.55,0,*70
1498464075.37,14345,20.94,73860.8,9.45,5.81,5.81,0,*72
1498464076.58,14346,20.94,73862.8,9.43,5.95,5.85,0,*76
1498464077.78,14347,20.94,73862.3,9.41,6.07,5.95,0,*7C
1498464079.01,14348,20.94,73858.5,9.41,7.29,7.27,0,*75
1498464080.22,14349,20.94,73858.5,9.43,8.01,7.91,0,*7E
1498464081.42,14350,20.94,73860.5,9.43,7.97,7.91,0,*76
1498464082.6,14351,20.94,73862.8,9.43,8.27,8.27,0,*71
1498464083.86,14352,20.94,73860.5,9.45,8.55,8.59,0,*78
1498464085.09,14353,20.94,73862.3,9.47,8.41,8.41,0,*77
1498464086.27,14354,20.94,73858.0,9.47,8.15,8.19,0,*7C
1498464087.5,14355,20.94,73860.8,9.53,8.23,8.29,0,*7E
1498464088.7,14356,20.94,73858.3,9.53,8.87,8.83,0,*73
1498464089.96,14357,20.94,73858.0,9.57,8.93,8.93,0,*72
1498464091.21,14358,20.94,73860.3,9.57,8.37,8.37,0,*7D
1498464092.44,14359,20.94,73862.0,9.59,9.39,9.39,0,*72
1498464093.64,14360,20.94,73858.0,9.61,9.29,9.21,0,*7B
1498464094.85,14361,20.94,73858.5,9.61,9.07,9.07,0,*72
1498464096.08,14362,20.94,73856.5,9.65,7.79,7.77,0,*7B
1498464097.28,14363,20.94,73858.0,9.63,8.45,8.33,0,*73
1498464098.48,14364,20.94,73858.5,9.65,8.69,8.65,0,*7F
1498464099.68,14365,20.94,73856.5,9.65,8.27,8.19,0,*7F
1498464100.87,14366,20.94,73856.0,9.67,8.15,8.05,0,*72
1498464102.09,14367,20.94,73858.0,9.65,8.65,8.59,0,*7F
1498464103.3,14368,20.94,73858.3,9.65,9.43,9.47,0,*7B
1498464104.52,14369,20.94,73858.0,9.65,10.47,10.47,0,*7E
1498464105.74,14370,20.94,73858.3,9.69,11.09,11.13,0,*71
1498464107.01,14371,20.94,73854.8,9.73,11.67,11.61,0,*76
1498464108.28,14372,20.94,73862.3,9.81,11.37,11.33,0,*7A
1498464109.46,14373,20.94,73858.0,9.83,11.89,11.89,0,*7D
1498464110.66,14374,20.94,73862.5,9.87,11.55,11.55,0,*7E
1498464111.87,14375,20.94,73860.5,9.93,10.93,10.93,0,*7A
1498464113.06,14376,20.94,73862.5,9.95,10.69,10.69,0,*7F
1498464114.28,14377,20.94,73860.5,9.95,10.85,10.79,0,*7D
1498464115.5,14378,20.94,73862.0,10.01,11.21,11.21,0,*44
1498464116.75,14379,20.94,73862.0,10.05,11.33,11.33,0,*41
1498464117.99,14380,20.94,73860.8,10.05,11.67,11.67,0,*47
1498464119.24,14381,20.94,73862.0,10.09,11.41,11.33,0,*4F
1498464120.43,14382,20.94,73860.8,10.09,10.55,10.47,0,*4A
1498464121.62,14383,20.94,73864.8,10.13,10.47,10.51,0,*44
1498464122.83,14384,20.94,73862.5,10.13,11.13,11.13,0,*44
1498464124.05,14385,20.94,73862.5,10.17,11.61,11.65,0,*45
1498464125.24,14386,20.94,73862.5,10.17,12.23,12.27,0,*46
1498464126.49,14387,20.94,73860.3,10.23,12.71,12.81,0,*4B
1498464127.7,14388,20.94,73862.8,10.27,12.73,12.77,0,*4B
1498464128.97,14389,20.94,73860.8,10.31,12.63,12.71,0,*4A
1498464130.21,14390,20.94,73860.5,10.35,12.95,12.97,0,*47
1498464131.46,14391,20.94,73860.0,10.37,13.35,13.45,0,*41
1498464132.7,14392,20.94,73860.0,10.45,13.59,13.69,0,*43
1498464133.93,14393,20.94,73864.0,10.47,13.25,13.39,0,*4E
1498464135.2,14394,20.94,73860.3,10.53,13.21,13.35,0,*44
1498464136.41,14395,20.94,73862.5,10.53,13.15,13.15,0,*40
1498464137.65,14396,20.94,73862.8,10.57,12.23,12.29,0,*4D
1498464138.86,14397,20.94,73860.3,10.61,12.95,12.95,0,*43
1498464140.06,14398,20.94,73862.8,10.61,11.93,11.85,0,*4B
1498464141.26,14399,20.94,73864.0,10.67,12.19,12.13,0,*41
1498464142.47,14400,20.94,73864.3,10.67,12.61,12.53,0,*4D
1498464143.74,14401,20.94,73866.5,10.71,12.57,12.63,0,*4D
1498464144.93,14402,20.94,73864.5,10.73,12.19,12.19,0,*4B
1498464146.13,14403,20.94,73862.5,10.73,10.61,10.51,0,*49
1498464147.37,14404,20.94,73864.3,10.73,10.75,10.75,0,*4D
1498464148.62,14405,20.94,73864.8,10.73,10.75,10.71,0,*48
1498464149.89,14406,20.94,73872.0,10.71,10.75,10.71,0,*49
1498464151.12,14407,20.94,73872.8,10.71,9.95,9.81,0,*49
1498464152.36,14408,20.94,73874.3,10.71,9.85,9.75,0,*4C
1498464153.59,14409,20.94,73872.3,10.69,9.19,9.15,0,*47
1498464154.79,14410,20.94,73872.5,10.63,8.69,8.59,0,*4A
1498464155.98,14411,20.94,73868.8,10.63,8.23,8.09,0,*40
1498464157.17,14412,20.94,73872.0,10.59,6.83,6.57,0,*4B
1498464158.39,14413,20.94,73868.8,10.55,6.33,6.17,0,*49
1498464159.58,14414,20.94,73868.0,10.51,6.83,6.69,0,*48
1498464160.79,14415,20.94,73866.0,10.47,5.99,5.85,0,*47
1498464162.01,14416,20.94,73862.3,10.45,6.25,6.11,0,*4C
1498464163.23,14417,20.94,73866.0,10.35,7.01,6.91,0,*45
1498464164.43,14418,20.94,73866.5,10.29,7.19,7.05,0,*42
1498464165.66,14419,20.94,73866.3,10.31,7.45,7.23,0,*47
1498464166.89,14420,20.94,73870.0,10.27,7.47,7.37,0,*4D
1498464168.06,14421,20.94,73870.0,10.25,7.01,6.93,0,*43
1498464169.29,14422,20.94,73868.8,10.21,6.91,6.65,0,*45
1498464170.47,14423,20.94,73874.0,10.17,8.09,7.97,0,*42
1498464171.68,14424,20.94,73868.3,10.17,9.39,9.29,0,*4C
1498464172.92,14425,20.94,73868.3,10.17,10.41,10.31,0,*4B
1498464174.14,14426,20.94,73870.0,10.23,11.55,11.55,0,*48
1498464175.41,14427,20.94,73870.3,10.23,11.45,11.41,0,*4D
1498464176.65,14428,20.94,73868.0,10.27,11.65,11.57,0,*43
1498464177.89,14429,20.94,73870.5,10.31,12.19,12.17,0,*4A
1498464179.11,14430,20.94,73872.0,10.35,11.55,11.55,0,*48
1498464180.37,14431,20.94,73872.5,10.35,10.99,10.99,0,*49
1498464181.63,14432,20.94,73870.3,10.37,9.49,9.39,0,*4F
1498464182.83,14433,20.94,73872.8,10.37,9.29,9.29,0,*49
1498464184.05,14434,20.94,73872.3,10.39,10.19,10.17,0,*4E
1498464185.32,14435,20.94,73874.3,10.37,9.89,9.85,0,*43
1498464186.55,14436,20.94,73868.8,10.37,8.83,8.75,0,*45
1498464187.76,14437,20.94,73868.5,10.35,8.23,8.15,0,*4A
1498464188.99,14438,20.94,73872.3,10.35,8.23,8.13,0,*43
1498464190.22,14439,20.94,73872.5,10.31,8.75,8.65,0,*44
1498464191.43,14440,20.94,73868.8,10.31,9.47,9.43,0,*4F
1498464192.67,14441,20.94,73872.8,10.31,9.91,9.81,0,*4B
1498464193.9,14442,20.94,73868.5,10.31,9.91,9.89,0,*40
1498464195.13,14443,20.94,73872.8,10.33,10.33,10.23,0,*4B
1498464196.32,14444,20.94,73872.8,10.33,10.51,10.47,0,*4A
1498464197.59,14445,20.94,73868.3,10.37,10.83,10.83,0,*48
1498464198.86,14446,20.94,73870.8,10.37,10.75,10.71,0,*4F
1498464200.08,14447,20.94,73868.5,10.39,10.61,10.55,0,*43
1498464201.32,14448,20.94,73872.8,10.39,10.71,10.61,0,*4A
1498464202.59,14449,20.94,73870.3,10.45,10.71,10.71,0,*41
1498464203.86,14450,20.94,73870.3,10.45,11.03,11.03,0,*49
1498464205.07,14451,20.94,73870.3,10.47,10.89,10.83,0,*40
1498464206.3,14452,20.94,73870.0,10.49,11.17,11.13,0,*43
1498464207.54,14453,20.94,73864.8,10.49,10.93,10.83,0,*47
1498464208.79,14454,20.94,73864.8,10.51,11.07,11.03,0,*4C
1498464209.98,14455,20.94,73868.0,10.51,10.93,10.89,0,*42
1498464211.17,14456,20.94,73862.8,10.55,11.09,10.93,0,*4C
1498464212.44,14457,20.94,73866.3,10.57,11.27,11.23,0,*49
1498464213.68,14458,20.94,73862.3,10.55,10.61,10.61,0,*40
1498464214.88,14459,20.94,73866.0,10.55,10.17,10.05,0,*42
1498464216.13,14460,20.94,73864.5,10.57,9.61,9.49,0,*43
1498464217.33,14461,20.94,73864.3,10.55,9.57,9.29,0,*43
1498464218.56,14462,20.94,73866.0,10.55,9.11,8.93,0,*42
1498464219.82,14463,20.94,73866.0,10.53,8.97,8.89,0,*41
1498464221.02,14464,20.94,73862.3,10.53,9.33,9.25,0,*4E
1498464222.22,14465,20.94,73862.5,10.51,9.63,9.61,0,*48
1498464223.43,14466,20.94,73864.8,10.51,9.29,9.19,0,*4A
1498464224.64,14467,20.94,73860.0,10.51,8.93,8.87,0,*4D
1498464225.85,14468,20.94,73860.0,10.51,9.19,9.07,0,*48
1498464227.06,14469,20.94,73860.3,10.47,9.07,8.97,0,*49
1498464228.27,14470,20.94,73864.8,10.47,9.39,9.29,0,*48
1498464229.51,14471,20.94,73864.3,10.47,9.01,8.93,0,*42
1498464230.72,14472,20.94,73866.0,10.47,9.71,9.61,0,*4A
1498464231.93,14473,20.94,73862.3,10.47,9.25,9.19,0,*45
1498464233.15,14474,20.94,73864.0,10.41,8.29,8.19,0,*48
1498464234.38,14475,20.94,73862.0,10.41,8.37,8.19,0,*46
1498464235.59,14476,20.94,73862.5,10.37,7.51,7.37,0,*48
1498464236.79,14477,20.94,73864.3,10.35,7.51,7.33,0,*4F
1498464238.05,14478,20.94,73862.8,10.35,7.91,7.73,0,*48
1498464239.28,14479,20.94,73860.8,10.33,8.47,8.41,0,*45
1498464240.49,14480,20.94,73864.0,10.29,8.65,8.55,0,*4D
1498464241.67,14481,20.94,73864.0,10.29,8.87,8.83,0,*4B
1498464242.9,14482,20.94,73864.0,10.27,9.29,9.19,0,*41
1498464244.17,14483,20.94,73866.5,10.27,9.49,9.35,0,*48
1498464245.43,14484,20.94,73862.0,10.27,9.57,9.49,0,*4B
1498464246.65,14485,20.94,73860.8,10.27,9.63,9.61,0,*47
1498464247.91,14486,20.94,73860.0,10.27,9.49,9.35,0,*4D
1498464249.14,14487,20.94,73864.5,10.27,9.47,9.39,0,*4E
1498464250.32,14488,20.94,73864.8,10.25,8.83,8.79,0,*4F
1498464251.52,14489,20.94,73862.0,10.25,8.71,8.61,0,*4A
1498464252.78,14490,20.94,73862.8,10.27,8.97,8.93,0,*45
1498464253.99,14491,20.94,73864.5,10.25,9.47,9.35,0,*47
1498464255.2,14492,20.94,73864.8,10.25,9.91,9.81,0,*40
1498464256.44,14493,20.94,73864.5,10.27,10.61,10.51,0,*41
1498464257.71,14494,20.94,73866.5,10.27,11.03,10.95,0,*4B
1498464258.9,14495,20.94,73866.0,10.29,11.21,11.21,0,*4A
1498464260.18,14496,20.94,73866.3,10.31,11.03,10.99,0,*42
1498464261.45,14497,20.94,73864.8,10.35,11.33,11.23,0,*44
1498464262.66,14498,20.94,73866.5,10.39,11.27,11.17,0,*45
1498464263.88,14499,20.94,73864.8,10.37,10.55,10.51,0,*4D
1498464265.07,14500,20.94,73864.5,10.39,10.55,10.43,0,*41
1498464266.33,14501,20.94,73868.5,10.37,10.65,10.61,0,*4D
1498464267.58,14502,20.94,73868.3,10.39,10.75,10.65,0,*45
1498464268.79,14503,20.94,73866.5,10.39,10.95,10.85,0,*44
1498464270.06,14504,20.94,73868.8,10.45,11.03,10.99,0,*4B
1498464271.3,14505,20.94,73866.8,10.45,10.69,10.61,0,*40
1498464272.53,14506,20.94,73868.3,10.45,10.17,10.13,0,*4F
1498464273.76,14507,20.94,73866.0,10.41,10.13,10.13,0,*4E
1498464275.0,14508,20.94,73866.8,10.41,10.19,10.09,0,*40
1498464276.21,14509,20.94,73868.5,10.41,10.13,9.99,0,*7A
1498464277.41,14510,20.94,73870.5,10.41,9.63,9.47,0,*4E
1498464278.64,14511,20.94,73866.5,10.41,9.63,9.53,0,*4A
1498464279.88,14512,20.94,73864.8,10.41,10.03,9.89,0,*70
1498464281.1,14513,20.94,73864.3,10.41,10.09,10.03,0,*41
1498464282.37,14514,20.94,73866.5,10.41,10.31,10.19,0,*46
1498464283.62,14515,20.94,73864.5,10.41,10.23,10.13,0,*4E
1498464284.86,14516,20.94,73866.0,10.41,10.19,10.09,0,*4F
1498464286.1,14517,20.94,73870.0,10.41,10.47,10.41,0,*49
1498464287.38,14518,20.94,73864.8,10.41,10.31,10.19,0,*4A
1498464288.59,14519,20.94,73862.5,10.47,10.43,10.37,0,*44
1498464289.8,14520,20.94,73864.3,10.45,10.43,10.33,0,*48
1498464291.01,14521,20.94,73866.5,10.47,10.51,10.37,0,*4C
1498464292.28,14522,20.94,73864.8,10.45,10.71,10.61,0,*4C
1498464293.51,14523,20.94,73866.3,10.45,10.57,10.47,0,*4D
1498464294.75,14524,20.94,73864.8,10.45,10.43,10.37,0,*48
1498464295.98,14525,20.94,73866.0,10.45,10.43,10.37,0,*49
1498464297.18,14526,20.94,73864.5,10.45,10.51,10.43,0,*4A
1498464298.41,14527,20.94,73866.0,10.47,10.33,10.27,0,*4F
1498464299.62,14528,20.94,73864.0,10.47,9.95,9.85,0,*44
1498464300.86,14529,20.94,73864.8,10.47,9.49,9.35,0,*4F
1498464302.11,14530,20.94,73866.5,10.45,9.61,9.49,0,*44
1498464303.36,14531,20.94,73866.3,10.41,9.53,9.35,0,*4B
1498464304.57,14532,20.94,73864.8,10.41,9.75,9.67,0,*4B
1498464305.79,14533,20.94,73866.8,10.41,10.09,10.03,0,*43
1498464307.0,14534,20.94,73864.8,10.45,10.05,9.91,0,*7F
1498464308.22,14535,20.94,73864.3,10.41,10.09,10.03,0,*45
1498464309.44,14536,20.94,73868.0,10.41,10.09,10.03,0,*46
1498464310.64,14537,20.94,73866.0,10.39,10.05,9.95,0,*73
1498464311.85,14538,20.94,73868.3,10.39,9.77,9.75,0,*4F
1498464313.09,14539,20.94,73870.0,10.37,9.89,9.75,0,*41
1498464314.33,14540,20.94,73870.0,10.39,9.85,9.77,0,*4F
1498464315.56,14541,20.94,73864.8,10.37,9.99,9.85,0,*40
1498464316.77,14542,20.94,73870.3,10.37,9.99,9.99,0,*4E
1498464318.03,14543,20.94,73868.3,10.37,9.77,9.77,0,*4F
1498464319.24,14544,20.94,73870.0,10.39,9.39,9.29,0,*47
1498464320.47,14545,20.94,73870.3,10.37,9.43,9.39,0,*44
1498464321.71,14546,20.94,73868.0,10.37,9.07,9.01,0,*4C
1498464322.94,14547,20.94,73868.8,10.35,9.15,9.07,0,*4A
1498464324.14,14548,20.94,73870.3,10.33,8.93,8.83,0,*41
1498464325.35,14549,20.94,73872.0,10.33,9.03,8.97,0,*4D
1498464326.58,14550,20.94,73870.3,10.31,8.33,8.23,0,*4A
1498464327.8,14551,20.94,73868.8,10.33,8.51,8.41,0,*49
1498464329.01,14552,20.94,73868.0,10.29,8.71,8.61,0,*41
1498464330.26,14553,20.94,73870.8,10.27,8.41,8.29,0,*41
1498464331.5,14554,20.94,73874.3,10.25,8.13,7.95,0,*4B
1498464332.73,14555,20.94,73870.3,10.25,7.73,7.69,0,*40
1498464333.94,14556,20.94,73868.0,10.21,7.65,7.55,0,*4F
1498464335.14,14557,20.94,73874.0,10.21,7.47,7.33,0,*4E
1498464336.37,14558,20.94,73872.0,10.15,7.51,7.47,0,*42
1498464337.6,14559,20.94,73872.0,10.11,8.01,7.91,0,*46
1498464338.82,14560,20.94,73868.5,10.11,8.15,8.01,0,*4F
1498464340.03,14561,20.94,73868.0,10.09,8.33,8.27,0,*47
1498464341.27,14562,20.94,73870.3,10.07,8.23,8.13,0,*4C
1498464342.53,14563,20.94,73870.8,10.07,8.51,8.33,0,*4A
1498464343.76,14564,20.94,73870.5,10.07,8.75,8.65,0,*48
1498464345.0,14565,20.94,73866.8,10.07,9.07,8.97,0,*40
1498464346.21,14566,20.94,73870.0,10.07,9.33,9.21,0,*48
1498464347.45,14567,20.94,73870.8,10.07,9.43,9.39,0,*47
1498464348.69,14568,20.94,73866.5,10.07,9.53,9.43,0,*44
1498464349.9,14569,20.94,73870.0,10.07,9.47,9.43,0,*40
1498464351.16,14570,20.94,73864.8,10.07,9.19,9.11,0,*44
1498464352.42,14571,20.94,73870.5,10.07,9.39,9.39,0,*4D
1498464353.63,14572,20.94,73870.8,10.09,9.81,9.71,0,*4F
1498464354.85,14573,20.94,73868.3,10.07,9.47,9.47,0,*4F
1498464356.06,14574,20.94,73868.5,10.07,9.29,9.29,0,*48
1498464357.27,14575,20.94,73870.8,10.07,8.79,8.79,0,*49
1498464358.51,14576,20.94,73864.8,10.07,8.69,8.55,0,*45
1498464359.75,14577,20.94,73872.8,10.05,8.71,8.59,0,*43
1498464360.99,14578,20.94,73868.3,10.05,7.95,7.95,0,*46
1498464362.22,14579,20.94,73866.8,10.03,8.51,8.41,0,*40
1498464363.44,14580,20.94,73870.3,10.03,9.15,8.97,0,*4C
1498464364.67,14581,20.94,73864.3,10.03,9.39,9.39,0,*46
1498464365.88,14582,20.94,73864.8,10.03,9.43,9.35,0,*44
1498464367.08,14583,20.94,73864.0,10.03,9.43,9.35,0,*45
1498464368.29,14584,20.94,73868.5,10.03,9.35,9.25,0,*42
1498464369.49,14585,20.94,73866.8,10.03,9.39,9.29,0,*43
1498464370.7,14586,20.94,73866.8,10.03,9.43,9.35,0,*40
1498464371.9,14587,20.94,73868.0,10.03,9.43,9.39,0,*4D
1498464373.08,14588,20.94,73868.0,10.03,9.75,9.63,0,*48
1498464374.26,14589,20.94,73866.8,10.03,9.75,9.75,0,*4E
1498464375.47,14590,20.94,73870.3,10.05,10.09,10.09,0,*40
1498464376.67,14591,20.94,73870.8,10.05,10.09,10.09,0,*41
1498464377.93,14592,20.94,73870.3,10.07,10.23,10.13,0,*43
1498464379.13,14593,20.94,73868.3,10.09,9.67,9.57,0,*4C
1498464380.34,14594,20.94,73866.8,10.07,9.63,9.63,0,*46
1498464381.52,14595,20.94,73866.5,10.09,9.91,9.91,0,*49
1498464382.75,14596,20.94,73864.8,10.07,10.13,10.13,0,*44
1498464383.95,14597,20.94,73862.3,10.09,10.17,10.17,0,*4B
1498464385.14,14598,20.94,73862.5,10.09,10.03,9.99,0,*7F
1498464386.37,14599,20.94,73862.5,10.11,10.17,10.13,0,*48
1498464387.56,14600,20.94,73860.0,10.13,10.69,10.69,0,*4D
1498464388.84,14601,20.94,73862.3,10.11,11.23,11.23,0,*4E
1498464390.09,14602,20.94,73860.8,10.13,11.57,11.61,0,*4A
1498464391.28,14603,20.94,73858.0,10.17,12.23,12.19,0,*43
1498464392.5,14604,20.94,73856.3,10.23,12.81,12.81,0,*4A
1498464393.74,14605,20.94,73856.0,10.25,13.17,13.21,0,*48
1498464394.98,14606,20.94,73860.3,10.31,13.65,13.79,0,*46
1498464396.25,14607,20.94,73860.5,10.35,14.41,14.55,0,*4B
1498464397.47,14608,20.94,73858.8,10.45,15.05,15.19,0,*4B
1498464398.72,14609,20.94,73858.5,10.49,15.21,15.35,0,*4E
1498464399.93,14610,20.94,73860.8,10.57,15.87,16.11,0,*40
1498464401.15,14611,20.94,73862.8,10.67,16.21,16.49,0,*40
1498464402.36,14612,20.94,73860.5,10.73,16.29,16.49,0,*4E
1498464403.57,14613,20.94,73860.3,10.81,15.61,15.71,0,*45
1498464404.8,14614,20.94,73862.0,10.83,15.61,15.67,0,*47
1498464406.05,14615,20.94,73862.3,10.93,15.41,15.51,0,*40
1498464407.23,14616,20.94,73864.3,10.97,14.39,14.51,0,*48
1498464408.49,14617,20.94,73864.3,10.99,14.41,14.59,0,*40
1498464409.74,14618,20.94,73864.8,11.05,14.25,14.29,0,*4E
1498464410.99,14619,20.94,73866.8,11.05,12.87,12.67,0,*4D
1498464412.27,14620,20.94,73864.8,11.07,12.17,12.17,0,*4B
1498464413.48,14621,20.94,73864.0,11.11,11.65,11.65,0,*4D
1498464414.73,14622,20.94,73866.5,11.11,12.33,12.39,0,*44
1498464415.99,14623,20.94,73868.8,11.11,13.05,13.07,0,*4D
1498464417.24,14624,20.94,73864.8,11.13,12.63,12.67,0,*4E
1498464418.49,14625,20.94,73866.3,11.15,12.97,13.07,0,*45
1498464419.74,14626,20.94,73870.5,11.15,13.65,13.71,0,*4B
1498464421.02,14627,20.94,73868.5,11.19,13.99,14.11,0,*44
1498464422.27,14628,20.94,73870.0,11.21,13.61,13.69,0,*4F
1498464423.54,14629,20.94,73870.0,11.23,13.85,13.85,0,*44
1498464424.76,14630,20.94,73868.3,11.25,13.49,13.55,0,*47
1498464426.02,14631,20.94,73870.8,11.27,13.59,13.65,0,*46
1498464427.24,14632,20.94,73874.3,11.29,14.05,14.19,0,*49
1498464428.49,14633,20.94,73874.3,11.31,14.65,14.75,0,*4D
1498464429.77,14634,20.94,73872.8,11.37,14.59,14.75,0,*43
1498464431.01,14635,20.94,73868.0,11.41,14.61,14.71,0,*4C
1498464432.25,14636,20.94,73872.3,11.43,15.37,15.51,0,*4C
1498464433.48,14637,20.94,73872.0,11.47,15.75,15.91,0,*43
1498464434.75,14638,20.94,73872.8,11.53,15.67,15.81,0,*4B
1498464436.0,14639,20.94,73874.8,11.57,14.55,14.65,0,*45
1498464437.23,14640,20.94,73876.3,11.59,14.25,14.41,0,*44
1498464438.43,14641,20.94,73870.8,11.63,14.51,14.61,0,*4D
1498464439.63,14642,20.94,73872.8,11.63,14.39,14.51,0,*43
1498464440.87,14643,20.94,73872.8,11.67,14.65,14.75,0,*49
1498464442.09,14644,20.94,73876.0,11.67,13.75,13.75,0,*4F
1498464443.33,14645,20.94,73874.5,11.69,12.97,12.97,0,*40
1498464444.57,14646,20.94,73874.0,11.69,12.13,12.13,0,*43
1498464445.76,14647,20.94,73876.0,11.69,12.51,12.51,0,*42
1498464446.99,14648,20.94,73872.8,11.69,12.39,12.33,0,*47
1498464448.25,14649,20.94,73874.0,11.67,11.47,11.45,0,*40
1498464449.46,14650,20.94,73878.0,11.65,10.89,10.79,0,*47
1498464450.71,14651,20.94,73876.3,11.63,11.67,11.61,0,*49
1498464451.96,14652,20.94,73872.8,11.61,11.57,11.51,0,*48
1498464453.17,14653,20.94,73874.3,11.61,9.95,9.95,0,*4F
1498464454.4,14654,20.94,73876.0,11.53,9.71,9.61,0,*48
1498464455.6,14655,20.94,73878.3,11.51,10.17,10.03,0,*4F
1498464456.81,14656,21.0,73876.8,11.47,9.95,9.85,0,*4F
1498464458.0,14657,20.94,73876.5,11.47,10.03,9.91,0,*7C
1498464459.21,14658,20.94,73876.3,11.43,9.77,9.71,0,*42
1498464460.4,14659,20.94,73874.5,11.39,10.03,9.99,0,*73
1498464461.63,14660,20.94,73870.0,11.37,10.05,9.99,0,*71
1498464462.81,14661,20.94,73874.0,11.35,9.75,9.63,0,*48
1498464464.0,14662,20.94,73872.8,11.35,9.99,9.91,0,*44
1498464465.25,14663,20.94,73872.5,11.29,10.61,10.61,0,*40
1498464466.49,14664,20.94,73868.3,11.29,10.99,10.95,0,*4B
1498464467.71,14665,20.94,73870.8,11.29,11.27,11.21,0,*40
1498464468.98,14666,20.94,73870.8,11.27,11.67,11.67,0,*4B
1498464470.25,14667,20.94,73870.8,11.27,11.41,11.41,0,*4A
1498464471.47,14668,20.94,73870.8,11.27,11.81,11.81,0,*45
1498464472.73,14669,20.94,73868.8,11.27,11.95,11.95,0,*44
1498464473.95,14670,20.94,73868.5,11.29,11.71,11.65,0,*47
1498464475.18,14671,20.94,73868.3,11.29,11.09,11.07,0,*4D
1498464476.43,14672,20.94,73866.5,11.29,10.99,10.95,0,*4C
1498464477.61,14673,20.94,73868.0,11.29,10.89,10.89,0,*41
1498464478.87,14674,20.94,73868.5,11.29,10.79,10.79,0,*46
1498464480.12,14675,20.94,73868.0,11.27,11.09,10.99,0,*41
1498464481.37,14676,20.94,73870.3,11.25,11.07,11.07,0,*48
1498464482.62,14677,20.94,73870.3,11.25,11.31,11.31,0,*49
1498464483.83,14678,20.94,73870.8,11.25,10.95,10.93,0,*40
1498464485.03,14679,20.94,73874.0,11.25,11.17,11.13,0,*43
1498464486.23,14680,20.94,73870.5,11.25,11.51,11.47,0,*46
1498464487.51,14681,20.94,73872.5,11.27,12.05,12.05,0,*42
1498464488.73,14682,20.94,73874.3,11.27,12.51,12.51,0,*41
1498464489.95,14683,20.94,73874.5,11.29,12.71,12.81,0,*41
1498464491.2,14684,20.94,73872.0,11.29,12.71,12.71,0,*49
1498464492.41,14685,20.94,73872.5,11.35,13.07,13.07,0,*45
1498464493.69,14686,20.94,73872.8,11.37,13.51,13.61,0,*47
1498464494.95,14687,20.94,73874.0,11.39,14.15,14.19,0,*47
1498464496.18,14688,20.94,73874.5,11.43,13.51,13.59,0,*41
1498464497.42,14689,20.94,73874.3,11.45,14.29,14.39,0,*4F
1498464498.66,14690,20.94,73872.0,11.49,14.81,14.91,0,*4B
1498464499.94,14691,20.94,73872.0,11.53,15.25,15.37,0,*43
1498464501.15,14692,20.94,73872.3,11.61,14.51,14.51,0,*42
1498464502.4,14693,20.94,73872.5,11.63,13.91,13.99,0,*49
1498464503.6,14694,20.94,73872.5,11.65,13.71,13.71,0,*40
1498464504.85,14695,20.94,73872.3,11.67,13.59,13.61,0,*48
1498464506.1,14696,20.94,73870.0,11.69,13.65,13.61,0,*4A
1498464507.35,14697,20.94,73872.3,11.71,13.65,13.71,0,*43
1498464508.54,14698,20.94,73870.3,11.73,13.11,13.11,0,*4B
1498464509.74,14699,20.94,73870.0,11.73,12.77,12.73,0,*4E
1498464510.94,14700,20.94,73870.0,11.73,12.73,12.73,0,*4B
1498464512.21,14701,20.94,73870.0,11.75,12.53,12.57,0,*48
1498464513.48,14702,20.94,73870.8,11.75,12.57,12.57,0,*4F
1498464514.7,14703,20.94,73868.3,11.75,11.55,11.55,0,*4E
1498464515.91,14704,20.94,73868.3,11.73,11.13,11.09,0,*44
1498464517.15,14705,20.94,73870.8,11.73,11.07,10.99,0,*48